Date String (YYYY-MM-DD hh:mm:ss) UTC,Instrument flags,Ambient pressure (hPa),Sample flow (lpm),Bypass flow (lpm),Sample temperature (°C),Ambient temperature (°C),ASC tube jacket temperature (°C),LED temperature (°C),Box temperature (°C),Sample RH (%),Span deviation,Mass concentration (μg/m³),Mass concentration (μg/m³),Mass concentration (μg/m³)
DateTimeUTC,F1_M11,P_M11,Q1_M11,Q2_M11,T1_M11,T2_M11,T3_M11,T4_M11,T5_M11,U1_M11,ZSPAN_M11,X0_M11,X2_M11,X1_M11
2022-04-29 18:00:00,,0816.4,5.00,0.00,27.6,26.5,00.0,36.7,29.3,09.5,0000.0,0015.63,0005.37,0002.66
2022-04-29 18:01:00,,0816.4,5.03,0.00,27.6,26.5,00.0,36.7,29.3,09.1,0000.0,0015.53,0005.33,0002.62
2022-04-29 18:02:00,,0816.3,4.99,0.00,27.6,26.5,00.0,36.7,29.3,08.8,0000.0,0015.12,0005.27,0002.60
2022-04-29 18:03:00,,0816.3,5.00,0.00,27.6,26.5,00.0,36.7,29.3,08.8,0000.0,0014.97,0005.19,0002.55
2022-04-29 18:04:00,,0816.3,5.00,0.00,27.6,26.4,00.0,36.7,29.3,08.9,0000.0,0014.40,0005.06,0002.49
2022-04-29 18:05:00,,0816.3,4.99,0.00,27.6,26.4,00.0,36.7,29.3,09.0,0000.0,0014.13,0004.96,0002.41
2022-04-29 18:06:00,,0816.2,5.01,0.00,27.5,26.4,00.0,36.6,29.2,08.9,0000.0,0013.15,0004.86,0002.34
2022-04-29 18:07:00,,0816.2,5.00,0.00,27.5,26.4,00.0,36.6,29.2,08.9,0000.0,0012.64,0004.76,0002.31
2022-04-29 18:08:00,,0816.1,5.00,0.00,27.5,26.4,00.0,36.6,29.2,08.5,0000.0,0012.69,0004.70,0002.27
2022-04-29 18:09:00,,0816.3,4.99,0.00,27.5,26.4,00.0,36.6,29.2,08.5,0000.0,0012.86,0004.61,0002.23
2022-04-29 18:10:00,,0816.3,5.01,0.00,27.5,26.4,00.0,36.6,29.1,08.8,0000.0,0012.90,0004.45,0002.17
2022-04-29 18:11:00,,0816.3,4.99,0.00,27.5,26.4,00.0,36.6,29.1,08.9,0000.0,0013.26,0004.34,0002.13
2022-04-29 18:12:00,,0816.2,5.01,0.00,27.5,26.4,00.0,36.6,29.2,08.7,0000.0,0013.09,0004.24,0002.09
2022-04-29 18:13:00,,0816.2,4.99,0.00,27.5,26.4,00.0,36.6,29.1,08.9,0000.0,0012.63,0004.17,0002.04
2022-04-29 18:14:00,,0816.0,5.02,0.00,27.5,26.4,00.0,36.6,29.2,08.5,0000.0,0012.49,0004.15,0002.01
2022-04-29 18:15:00,,0816.1,4.98,0.00,27.5,26.4,00.0,36.6,29.2,08.6,0000.0,0013.33,0004.12,0001.99
2022-04-29 18:16:00,,0816.1,5.01,0.00,27.5,26.4,00.0,36.5,29.2,08.5,0000.0,0013.41,0004.15,0002.01
2022-04-29 18:17:00,,0816.0,4.98,0.00,27.5,26.4,00.0,36.5,29.2,08.6,0000.0,0013.56,0004.16,0002.02
2022-04-29 18:18:00,,0816.1,5.01,0.00,27.5,26.4,00.0,36.5,29.2,08.7,0000.0,0013.37,0004.18,0002.01
2022-04-29 18:19:00,,0816.1,5.00,0.00,27.5,26.4,00.0,36.5,29.2,08.8,0000.0,0012.81,0004.15,0001.97
2022-04-29 18:20:00,,0816.1,4.99,0.00,27.5,26.4,00.0,36.5,29.3,08.9,0000.0,0012.24,0004.10,0001.93
2022-04-29 18:21:00,,0816.0,5.02,0.00,27.5,26.4,00.0,36.5,29.2,08.9,0000.0,0012.05,0004.11,0001.90
2022-04-29 18:22:00,,0816.1,4.99,0.00,27.5,26.4,00.0,36.5,29.2,08.9,0000.0,0011.38,0004.06,0001.86
2022-04-29 18:23:00,,0816.1,5.00,0.00,27.5,26.4,00.0,36.5,29.2,08.9,0000.0,0011.15,0004.06,0001.85
2022-04-29 18:24:00,,0816.0,5.01,0.00,27.5,26.3,00.0,36.5,29.2,09.0,0000.0,0010.96,0003.98,0001.82
2022-04-29 18:25:00,,0816.2,4.99,0.00,27.4,26.3,00.0,36.5,29.2,08.9,0000.0,0010.77,0003.88,0001.78
2022-04-29 18:26:00,,0816.0,5.01,0.00,27.4,26.3,00.0,36.5,29.2,09.0,0000.0,0010.58,0003.90,0001.74
2022-04-29 18:27:00,,0816.0,5.00,0.00,27.4,26.3,00.0,36.4,29.2,09.2,0000.0,0009.81,0003.75,0001.69
2022-04-29 18:28:00,,0816.1,4.99,0.00,27.4,26.3,00.0,36.4,29.2,09.3,0000.0,0010.01,0003.65,0001.64
2022-04-29 18:29:00,,0816.1,5.01,0.00,27.4,26.3,00.0,36.4,29.2,09.3,0000.0,0010.55,0003.62,0001.60
2022-04-29 18:30:00,,0816.2,5.01,0.00,27.4,26.3,00.0,36.4,29.2,09.4,0000.0,0011.02,0003.54,0001.54
2022-04-29 18:31:00,,0816.2,4.99,0.00,27.4,26.3,00.0,36.4,29.1,09.5,0000.0,0011.32,0003.48,0001.48
2022-04-29 18:32:00,,0816.3,5.01,0.00,27.4,26.2,00.0,36.4,29.2,09.4,0000.0,0010.88,0003.36,0001.42
2022-04-29 18:33:00,,0816.2,4.99,0.00,27.4,26.2,00.0,36.4,29.1,09.3,0000.0,0011.54,0003.33,0001.36
2022-04-29 18:34:00,,0816.2,4.99,0.00,27.4,26.2,00.0,36.4,29.1,09.3,0000.0,0014.52,0003.53,0001.33
2022-04-29 18:35:00,,0816.5,5.00,0.00,27.3,26.1,00.0,36.3,29.0,09.6,0000.0,0017.79,0003.93,0001.34
2022-04-29 18:36:00,,0816.5,5.01,0.00,27.3,26.1,00.0,36.3,29.0,09.7,0000.0,0018.50,0003.95,0001.28
2022-04-29 18:37:00,,0816.7,4.98,0.00,27.3,26.1,00.0,36.3,29.0,09.8,0000.0,0018.83,0003.84,0001.22
2022-04-29 18:38:00,,0816.9,5.01,0.00,27.3,26.2,00.0,36.3,29.0,09.9,0000.0,0018.93,0003.83,0001.16
2022-04-29 18:39:00,,0816.9,5.00,0.00,27.3,26.2,00.0,36.3,29.0,09.9,0000.0,0018.98,0003.80,0001.10
2022-04-29 18:40:00,,0816.9,5.02,0.00,27.3,26.1,00.0,36.3,28.9,10.1,0000.0,0020.14,0003.74,0001.06
2022-04-29 18:41:00,,0817.1,4.99,0.00,27.3,26.1,00.0,36.3,28.9,09.9,0000.0,0020.25,0003.76,0001.03
2022-04-29 18:42:00,,0816.7,5.00,0.00,27.3,26.1,00.0,36.3,28.9,09.5,0000.0,0019.93,0003.72,0001.03
2022-04-29 18:43:00,,0816.6,4.99,0.00,27.3,26.1,00.0,36.3,29.0,09.6,0000.0,0020.30,0003.74,0001.05
2022-04-29 18:44:00,,0816.4,5.01,0.00,27.3,26.2,00.0,36.3,29.0,09.4,0000.0,0019.69,0003.69,0001.08
2022-04-29 18:45:00,,0816.3,4.99,0.00,27.3,26.2,00.0,36.3,29.0,09.2,0000.0,0017.61,0003.52,0001.10
2022-04-29 18:46:00,,0816.3,5.00,0.00,27.2,26.2,00.0,36.3,29.0,08.6,0000.0,0016.50,0003.29,0001.13
2022-04-29 18:47:00,,0816.1,4.99,0.00,27.2,26.1,00.0,36.3,29.0,08.4,0000.0,0017.61,0003.43,0001.21
2022-04-29 18:48:00,,0816.3,5.01,0.00,27.2,26.1,00.0,36.2,29.0,08.5,0000.0,0017.26,0003.58,0001.30
2022-04-29 18:49:00,,0816.3,4.99,0.00,27.2,26.1,00.0,36.2,29.0,08.5,0000.0,0017.73,0003.67,0001.36
2022-04-29 18:50:00,,0816.3,5.01,0.00,27.2,26.1,00.0,36.2,28.9,08.5,0000.0,0017.94,0003.72,0001.44
2022-04-29 18:51:00,,0816.2,5.00,0.00,27.2,26.1,00.0,36.2,29.0,08.7,0000.0,0016.09,0003.72,0001.51
2022-04-29 18:52:00,,0816.1,5.00,0.00,27.2,26.1,00.0,36.2,29.0,08.1,0000.0,0016.34,0003.75,0001.60
2022-04-29 18:53:00,,0816.0,4.99,0.00,27.2,26.1,00.0,36.2,28.9,07.8,0000.0,0016.46,0003.86,0001.67
2022-04-29 18:54:00,,0815.9,5.01,0.00,27.2,26.1,00.0,36.2,28.9,07.6,0000.0,0016.53,0003.96,0001.72
2022-04-29 18:55:00,,0815.9,4.98,0.00,27.2,26.1,00.0,36.2,28.9,07.6,0000.0,0016.65,0004.05,0001.77
2022-04-29 18:56:00,,0815.8,4.99,0.00,27.2,26.1,00.0,36.2,28.9,07.4,0000.0,0016.70,0004.08,0001.81
2022-04-29 18:57:00,,0815.7,5.01,0.00,27.1,26.1,00.0,36.2,28.9,07.7,0000.0,0015.37,0004.00,0001.81
2022-04-29 18:58:00,,0815.5,5.00,0.00,27.1,26.1,00.0,36.2,28.9,07.8,0000.0,0014.10,0003.93,0001.83
2022-04-29 18:59:00,,0815.3,5.01,0.00,27.1,26.1,00.0,36.2,28.9,07.6,0000.0,0016.14,0004.09,0001.88
